EXALTA-1 (42734 NORAD) Tracking and Keplerian Element Data

This shows tracking and keplerian element data for the satellite.

Feedback or suggestion? Click here.




ElementValue
Catalog42734
NameEXALTA-1
Epoch Orbit6999
Epoch Day228.90036645
Epoch Year2018
RAAN38.229
Inclination51.6276
Eccentricity0.0002915
Argument of Perigee90.4664
Mean Anonmoly269.6672
Mean Motion15.81132933
Decay Rate0.00072377
L11 42734U 98067MP 18228.90036645 .00072377 00000-0 36209-3 0 9993
L22 42734 51.6276 38.2290 0002915 90.4664 269.6672 15.81132933 69996

Live tracking and technical data element details for EXALTA-1 (NORAD 42734). EXALTA-1 can be tracked NOW for your location showing map with azimuth and elevation plus other details from your city location.

Track the satellite on the map from your city or location and see movement details for azimuth, elevation, latitude, longitude, range, height, and movement on the map or in text.







IsCatalogInMostPopularTable: catalog: 42734, numindb: 136
Update: records affected: 1



GetName: 42734 EXALTA-1

Hit Count: updated at: Fri, 17 Aug 2018 13:20:26 GMT